Rome, NY

12:49 PM EDT on August 31, 2016 (GMT -0400)
Griffiss

Weather History for KRME - March, 2014

Change the Weather History Date:

Friday, March 21, 2014

  Actual Average Record
Temperature  
Mean Temperature 24 °F -  
Max Temperature 30 °F 36 °F 80 °F (2012)
Min Temperature 16 °F 22 °F 1 °F (1988)
Degree Days  
Heating Degree Days 40    
Moisture  
Dew Point 23 °F    
Average Humidity 83    
Maximum Humidity 92    
Minimum Humidity 64    
Precipitation  
Precipitation 0.01 in - - ()
Sea Level Pressure  
Sea Level Pressure 29.97 in    
Wind  
Wind Speed 14 mph (West)    
Max Wind Speed 21 mph    
Max Gust Speed 29 mph    
Visibility 5 miles    
Events Snow    
Averages and records for this station are not official NWS values.
T = Trace of Precipitation, MM = Missing Value Source: NWS Daily Summary

Daily Weather History Graph

Daily Weather History Graph

Search for Another Location

Airport or City:

Trip Planner

Search our weather history database for the weather conditions in past years. The results will help you decide how hot, cold, wet, or windy it might be!

Date:

Astronomy

Mar. 21, 2014 Rise Set
Actual Time 7:03 AM EDT 7:15 PM EDT
Civil Twilight 6:34 AM EDT 7:43 PM EDT
Nautical Twilight 6:01 AM EDT 8:17 PM EDT
Astronomical Twilight 5:27 AM EDT 8:51 PM EDT
Moon No Moon Rise 9:45 AM EDT (3/21)
Length of Visible Light 13h 08m
Length of Day
12h 12m
Waning Gibbous, 75% of the Moon is Illuminated
Mar 21
Waning Gibbous
Mar 23
Last Quarter
Mar 30
New
Apr 7
First Quarter
Apr 15
Full

Hourly Weather History & Observations

Time (EDT) Temp. Windchill Dew Point Humidity Pressure Visibility Wind Dir Wind Speed Gust Speed Precip Events Conditions
12:26 AM 30.0 °F 19.1 °F 28.0 °F 92% 29.85 in 1.5 mi West 15.0 mph 24.2 mph 0.00 in Snow Light Snow
12:53 AM 30.0 °F 18.3 °F 28.0 °F 92% 29.86 in 1.8 mi West 17.3 mph - 0.01 in Snow Light Snow
1:20 AM 30.0 °F 19.5 °F 27.0 °F 88% 29.86 in 2.0 mi West 13.8 mph - 0.00 in Snow Light Snow
1:27 AM 30.0 °F 19.1 °F 27.0 °F 88% 29.86 in 2.5 mi West 15.0 mph - 0.00 in Snow Light Snow
1:31 AM 30.0 °F 18.3 °F 27.0 °F 88% 29.86 in 2.5 mi West 17.3 mph - 0.00 in Snow Light Snow
1:44 AM 30.0 °F 19.1 °F 27.0 °F 88% 29.86 in 3.0 mi West 15.0 mph 25.3 mph 0.00 in Snow Light Snow
1:53 AM 30.0 °F 18.7 °F 27.0 °F 88% 29.88 in 3.0 mi West 16.1 mph 24.2 mph 0.00 in Snow Light Snow
2:10 AM 30.0 °F 19.5 °F 27.0 °F 88% 29.87 in 4.0 mi West 13.8 mph - 0.00 in Snow Light Snow
2:53 AM 30.0 °F 19.1 °F 26.1 °F 85% 29.89 in 5.0 mi West 15.0 mph - 0.00 in Snow Light Snow
3:11 AM 30.0 °F 19.1 °F 27.0 °F 88% 29.87 in 3.0 mi West 15.0 mph - 0.00 in Snow Light Snow
3:31 AM 28.9 °F 17.3 °F 26.1 °F 89% 29.87 in 3.0 mi West 16.1 mph - 0.00 in Snow Light Snow
3:53 AM 28.9 °F 16.9 °F 26.1 °F 89% 29.89 in 6.0 mi West 17.3 mph 23.0 mph 0.00 in Snow Light Snow
4:40 AM 28.9 °F 17.3 °F 25.0 °F 85% 29.89 in 7.0 mi West 16.1 mph - 0.00 in Snow Light Snow
4:53 AM 28.9 °F 18.6 °F 24.1 °F 82% 29.90 in 9.0 mi West 12.7 mph 21.9 mph 0.00 in Snow Light Snow
5:53 AM 28.9 °F 17.3 °F 23.0 °F 78% 29.91 in 9.0 mi West 16.1 mph 23.0 mph 0.00 in   Overcast
6:03 AM 28.9 °F 17.7 °F 23.0 °F 78% 29.90 in 9.0 mi West 15.0 mph - 0.00 in Snow Light Snow
6:53 AM 28.9 °F 19.2 °F 23.0 °F 78% 29.93 in 7.0 mi West 11.5 mph - 0.00 in Snow Light Snow
7:35 AM 28.0 °F 18.1 °F 24.1 °F 85% 29.93 in 2.0 mi West 11.5 mph - 0.00 in Snow Light Snow
7:43 AM 28.0 °F 18.1 °F 24.1 °F 85% 29.93 in 1.8 mi West 11.5 mph 20.7 mph 0.00 in Snow Light Snow
7:53 AM 28.0 °F 18.6 °F 24.1 °F 85% 29.95 in 1.5 mi West 10.4 mph - 0.00 in Snow Light Snow
8:31 AM 28.0 °F 18.1 °F 25.0 °F 88% 29.94 in 0.8 mi West 11.5 mph - 0.00 in Snow Light Snow
8:38 AM 28.0 °F 17.0 °F 25.0 °F 88% 29.94 in 1.5 mi West 13.8 mph - 0.00 in Snow Light Snow
8:48 AM 28.4 °F 17.5 °F 24.8 °F 86% 29.95 in 2.5 mi West 13.8 mph - 0.00 in Snow Light Snow
8:53 AM 28.0 °F 17.5 °F 25.0 °F 88% 29.96 in 2.0 mi West 12.7 mph - 0.00 in Snow Light Snow
9:15 AM 28.0 °F 16.1 °F 25.0 °F 88% 29.95 in 1.8 mi West 16.1 mph - 0.00 in Snow Light Snow
9:24 AM 28.0 °F 16.5 °F 25.0 °F 88% 29.96 in 2.0 mi West 15.0 mph - 0.00 in Snow Light Snow
9:38 AM 28.0 °F 17.0 °F 25.0 °F 88% 29.96 in 2.0 mi West 13.8 mph - 0.00 in Snow Light Snow
9:46 AM 28.0 °F 17.5 °F 25.0 °F 88% 29.96 in 1.2 mi West 12.7 mph - 0.00 in Snow Light Snow
9:51 AM 28.4 °F 17.5 °F 24.8 °F 86% 29.97 in 0.8 mi West 13.8 mph - 0.00 in Snow Light Snow
9:53 AM 28.0 °F 18.1 °F 25.0 °F 88% 29.98 in 0.8 mi West 11.5 mph - 0.00 in Snow Light Snow
10:18 AM 28.0 °F 17.0 °F 24.1 °F 85% 29.98 in 1.5 mi WNW 13.8 mph 23.0 mph 0.00 in Snow Light Snow
10:21 AM 28.0 °F 16.1 °F 24.1 °F 85% 29.98 in 2.0 mi West 16.1 mph 23.0 mph 0.00 in Snow Light Snow
10:41 AM 28.0 °F 17.0 °F 24.1 °F 85% 29.98 in 1.5 mi West 13.8 mph - 0.00 in Snow Light Snow
10:53 AM 28.0 °F 17.0 °F 24.1 °F 85% 30.00 in 1.2 mi West 13.8 mph - 0.00 in Snow Light Snow
11:09 AM 28.0 °F 17.5 °F 24.1 °F 85% 29.99 in 2.0 mi West 12.7 mph - 0.00 in Snow Light Snow
11:17 AM 28.0 °F 18.1 °F 24.1 °F 85% 29.99 in 2.5 mi West 11.5 mph - 0.00 in Snow Light Snow
11:24 AM 28.0 °F 17.5 °F 24.1 °F 85% 29.99 in 3.0 mi West 12.7 mph - 0.00 in Snow Light Snow
11:53 AM 28.9 °F 16.1 °F 21.0 °F 72% 30.03 in 10.0 mi WNW 19.6 mph 28.8 mph 0.00 in   Overcast
12:53 PM 28.9 °F 15.8 °F 21.0 °F 72% 30.05 in 10.0 mi West 20.7 mph 25.3 mph 0.00 in   Overcast
1:09 PM 28.9 °F 18.2 °F 21.0 °F 72% 30.04 in 10.0 mi WNW 13.8 mph - N/A   Overcast
1:28 PM 28.9 °F 16.9 °F 21.0 °F 72% 30.04 in 10.0 mi West 17.3 mph - N/A   Overcast
1:53 PM 30.0 °F 18.3 °F 19.9 °F 66% 30.06 in 10.0 mi West 17.3 mph - N/A   Overcast
2:53 PM 30.0 °F 19.5 °F 19.9 °F 66% 30.06 in 10.0 mi WNW 13.8 mph - N/A   Overcast
3:53 PM 30.9 °F 21.7 °F 19.9 °F 64% 30.06 in 10.0 mi WNW 11.5 mph - N/A   Overcast
4:53 PM 30.9 °F 21.7 °F 19.9 °F 64% 30.08 in 10.0 mi WNW 11.5 mph - N/A   Overcast
5:53 PM 30.0 °F 20.5 °F 19.9 °F 66% 30.09 in 10.0 mi NW 11.5 mph - N/A   Scattered Clouds
6:53 PM 28.9 °F 20.4 °F 19.0 °F 67% 30.08 in 10.0 mi WNW 9.2 mph - N/A   Clear
7:53 PM 25.0 °F - 19.9 °F 81% 30.07 in 10.0 mi Calm Calm - N/A   Clear
8:53 PM 23.0 °F - 18.0 °F 81% 30.09 in 10.0 mi Calm Calm - N/A   Clear
9:53 PM 21.0 °F 16.2 °F 17.1 °F 85% 30.07 in 10.0 mi East 3.5 mph - N/A   Clear
10:53 PM 19.9 °F 14.9 °F 17.1 °F 89% 30.07 in 10.0 mi SE 3.5 mph - N/A   Clear
11:53 PM 16.0 °F - 12.9 °F 88% 30.09 in 10.0 mi Calm Calm - N/A   Clear